Location: Piotrkow Trybunalski
(51.4000°N, 19.6830°E)
Time: 14:53:06
(UTC+01:00)

Vanguard 2 - Pass Details

Date: 10 February 2023
Orbit: 553 x 2927 km, 32.9° (Epoch: 24 March)

Event Time Altitude Azimuth Distance (km) Brightness Sun altitude
Rises 17:31:17 0° 179° (S) 4,212 11.5 -7.4°
Reaches altitude 10° 17:38:09 10° 141° (SE) 3,955 10.9 -8.5°
Maximum altitude 17:39:24 10° 134° (SE) 4,057 10.9 -8.6°
Drops below altitude 10° 17:40:44 10° 127° (SE) 4,205 10.9 -8.8°
Enters shadow 17:46:05 - 105° (ESE) 5,109 11.2 -9.7°
Sets 17:50:15 0° 93° (E) 6,002 - -10.3°
